STARLINK-2023 (47605 NORAD) Tracking and Keplerian Element Data

This shows tracking and keplerian element data for the satellite.

Feedback or suggestion? Click here.




ElementValue
Catalog47605
NameSTARLINK-2023
Epoch Orbit177
Epoch Day105.91667824
Epoch Year2021
RAAN137.9654
Inclination53.0513
Eccentricity0.0003896
Argument of Perigee12.0071
Mean Anonmoly78.6361
Mean Motion15.62768628
Decay Rate-0.00039178
L11 47605U 21009BK 21105.91667824 -.00039178 00000-0 -42364-3 0 9998
L22 47605 53.0513 137.9654 0003896 12.0071 78.6361 15.62768628 1770

Live tracking and technical data element details for STARLINK-2023 (NORAD 47605). STARLINK-2023 can be tracked NOW for your location showing map with azimuth and elevation plus other details from your city location.

Track the satellite on the map from your city or location and see movement details for azimuth, elevation, latitude, longitude, range, height, and movement on the map or in text.







IsCatalogInMostPopularTable: catalog: 47605, numindb: 20
Update: records affected: 1



GetName: 47605 STARLINK-2023

Hit Count: updated at: Fri, 16 Apr 2021 11:30:14 GMT